Regional Weather Roundup
Issued by NWS

Home | Current Version | Previous Version | Text Only | Print | Product List | Glossary Off
Versions: 1 2 3 4 5 6 7 8 9 10 11 12 13 14 15 16 17 18 19 20 21 22 23 24 25 26 27 28 29 30 31 32 33 34 35 36 37 38 39 40 41 42 43 44 45 46 47 48 49 50

000
ASUS43 KLSX 011607
RWRMO

WEATHER SUMMARY FOR MISSOURI
NATIONAL WEATHER SERVICE SPRINGFIELD MO
1100 AM CDT WED JUL 01 2015

NOTE: "FAIR" INDICATES FEW OR NO CLOUDS BELOW 12,000 FEET WITH NO
       SIGNIFICANT WEATHER AND/OR OBSTRUCTIONS TO VISIBILITY.
       CURRENT SKY AND/OR WEATHER CONDITIONS ARE NOT AVAILABLE FOR
       CHILLICOTHE AND FARMINGTON.

MOZ001>031-035>038-043-044-053-054-011700-
...NORTHERN AND WESTERN MISSOURI...

CITY           SKY/WX    TMP DP  RH WIND       PRES   REMARKS
KANSAS CTY INT PTSUNNY   75  71  87 S13       29.84R
KANSAS C DTWN  PTSUNNY   77  70  79 S13G20    29.83S
LEE`S SUMMIT   PTSUNNY   75  70  84 S12G22    29.85F
ST JOSEPH      MOSUNNY   77  69  76 E9        29.86S
CHILLICOTHE      N/A     74  70  87 E5        29.92R
KIRKSVILLE     PTSUNNY   78  68  71 CALM      29.94R

$$
MOZ066>068-077>081-088>096-101>105-011700-
...SOUTHWEST MISSOURI...

CITY           SKY/WX    TMP DP  RH WIND       PRES   REMARKS
SPRINGFIELD    CLOUDY    71  66  84 E10       29.98F
JOPLIN         CLOUDY    81  74  79 SE12      29.93F

$$
MOZ032>034-039>042-045>050-055>058-069>072-011700-
...CENTRAL MISSOURI...

CITY           SKY/WX    TMP DP  RH WIND       PRES   REMARKS
COLUMBIA       CLOUDY    74  69  85 S15G22    29.91F
JEFFERSON CITY CLOUDY    73  67  81 S9        29.90F
ROLLA          CLOUDY    67  66  97 S16       29.94F
SEDALIA        CLOUDY    72  68  87 S10       29.90F
WHITEMAN AFB   LGT RAIN  69  69 100 S16G23    29.87R
WARRENSBURG    RAIN      70  68  94 SE14G20   29.86F
OSAGE BEACH    CLOUDY    68  64  88 S7        29.94F

$$
MOZ051-052-059>065-011700-
...EAST CENTRAL MISSOURI...

CITY           SKY/WX    TMP DP  RH WIND       PRES   REMARKS
ST LOUIS INTL  CLOUDY    78  68  71 W9        29.93F
SPIRIT OF STL  CLOUDY    76  70  82 W8        29.91F
ST CHARLES     CLOUDY    76  68  76 SW8       29.92S

$$
MOZ072>076-082>087-097>100-106>115-011700-
...SOUTH CENTRAL AND SOUTHEAST MISSOURI...

CITY           SKY/WX    TMP DP  RH WIND       PRES   REMARKS
CAPE GIRARDEAU CLOUDY    72  69  90 W13       29.99S
FARMINGTON     CLOUDY    66  64  94 SW8G21    30.00F
POPLAR BLUFF   LGT RAIN  70  67  90 NW10      30.01R
WEST PLAINS    LGT RAIN  68  65  90 NE7       30.02F

$$



USA.gov is the U.S. government's official web portal to all federal, state and local government web resources and services.